[[{"header":{"parameterUnit":"m.s-1","parameterCategory":1,"la1":30.2991,"la2":30.254,"lo1":-89.0895,"lo2":-89.0444,"dy":0.0017,"dx":0.0017,"nx":28,"ny":28,"refTime":"2024-08-19T21:00:00:Z","depth":0,"parameterNumber":2,"parameterNumberName":"U-component_of_WINDS"},"data":[0,0,0,0,0,0,0,0,0,0,0,0,0,0,0,0,0,0,0,0,0,0,0,0,0,0,0,0,0,0,0,0,0,0,0,0,0,0,0,0,0,0,0,0,0,0,0,0,0,0,0,0,0,0,0,0,0,0,-0.9064,-0.9064,0,-0.9047,-0.9047,-0.9047,-0.9022,-0.9021,-0.9021,-0.9021,-0.9003,-0.9002,-0.9002,0,0,0,0,0,0,0,0,0,0,0,0,0,-0.9071,-0.9071,-0.9064,-0.9064,-0.9063,-0.9047,-0.9047,-0.9047,-0.9022,-0.9021,-0.9021,-0.902,-0.9003,-0.9002,-0.9002,0,0,0,0,0,0,0,0,0,0,0,0,0,-0.9063,-0.9071,-0.9064,-0.9049,-0.9048,-0.9047,-0.9047,-0.9047,-0.9022,-0.9021,-0.9021,-0.902,-0.9003,-0.9002,-0.9002,-0.9015,0,0,-0.9002,-0.9002,0,0,0,0,0,0,0,0,-0.9063,-0.9063,-0.9051,-0.905,-0.9048,-0.9036,-0.9043,-0.9036,-0.9022,-0.9032,-0.9021,-0.902,-0.9014,-0.9013,-0.9011,-0.9014,-0.9013,-0.9002,-0.9002,-0.9002,-0.9002,0,0,0,0,0,0,0,-0.9064,-0.9063,-0.9057,-0.9051,-0.9049,-0.9042,-0.904,-0.9042,-0.9027,-0.9031,-0.9029,-0.9027,-0.9013,-0.9012,-0.9011,-0.9013,-0.9002,-0.9002,-0.9002,-0.9002,-0.9023,-0.9024,0,0,0,0,0,0,-0.9067,-0.9064,-0.9058,-0.9057,-0.9054,-0.9043,-0.9041,-0.9041,-0.9027,-0.9024,-0.9028,-0.9026,-0.9012,-0.9011,-0.901,-0.9022,-0.9002,-0.9002,-0.9002,-0.9023,-0.9023,-0.9024,0,0,0,0,0,0,-0.9067,-0.9067,-0.9058,-0.906,-0.9058,-0.9043,-0.9044,-0.9041,-0.9039,-0.9025,-0.9022,-0.9029,-0.9011,-0.901,-0.9014,-0.9022,-0.9002,-0.9002,-0.9022,-0.9023,-0.9024,-0.9048,0,0,0,0,0,0,-0.9068,-0.9067,-0.9072,-0.906,-0.9058,-0.9063,-0.9044,-0.9041,-0.9039,-0.9037,-0.9025,-0.9022,-0.9011,-0.9014,-0.9013,-0.9021,-0.9002,-0.9021,-0.9022,-0.9023,-0.9047,-0.905,-0.9053,0,0,0,0,0,-0.9068,-0.908,-0.9073,-0.9072,-0.9065,-0.9064,-0.9062,-0.9049,-0.904,-0.9044,-0.9035,-0.9023,-0.9021,-0.9014,-0.9014,-0.9021,-0.902,-0.9022,-0.9023,-0.9046,-0.905,-0.9053,0,0,0,0,0,0,-0.9094,-0.9078,-0.907,-0.9079,-0.9073,-0.9059,-0.9065,-0.9054,-0.9051,-0.9048,-0.9032,-0.9029,-0.9034,-0.9028,-0.9021,-0.9032,-0.9019,-0.902,-0.9036,-0.9039,-0.9042,-0.9044,-0.9002,0,0,0,0,0,-0.9101,-0.9102,-0.9088,-0.9097,-0.9094,-0.908,-0.9079,-0.9069,-0.9062,-0.906,-0.905,-0.9044,-0.9041,-0.904,-0.9037,-0.9046,-0.9042,-0.9051,-0.9054,-0.9056,-0.9057,-0.906,-0.9063,-0.9029,-0.9029,-0.9029,0,0,-0.9114,-0.9106,-0.9108,-0.9102,-0.9096,-0.9096,-0.9078,-0.908,-0.908,-0.906,-0.9062,-0.9055,-0.9046,-0.9052,-0.9054,-0.9047,-0.9066,-0.9058,-0.906,-0.906,-0.9061,-0.9065,-0.9068,-0.903,-0.9029,-0.9029,0,0,-0.914,-0.9134,-0.914,-0.9135,-0.9126,-0.9116,-0.9118,-0.9106,-0.91,-0.9102,-0.9087,-0.9086,-0.9083,-0.9076,-0.9073,-0.9094,-0.9082,-0.9093,-0.9109,-0.9112,-0.9114,-0.9117,-0.9123,-0.9125,-0.9095,-0.9095,-0.9095,0,-0.9158,-0.9159,-0.9145,-0.9147,-0.9144,-0.9126,-0.9131,-0.9126,-0.9117,-0.9115,-0.9107,-0.9101,-0.9094,-0.9097,-0.9102,-0.91,-0.91,-0.9095,-0.9115,-0.9117,-0.9119,-0.9125,-0.9127,-0.9096,-0.9096,-0.9096,-0.9096,0,-0.9181,-0.9182,-0.9187,-0.9179,-0.9176,-0.918,-0.9166,-0.9165,-0.9155,-0.9146,-0.9147,-0.9138,-0.9132,-0.9132,-0.9122,-0.9133,-0.9129,-0.9118,-0.9105,-0.9124,-0.9129,-0.9131,-0.9098,-0.9098,-0.9097,-0.9097,0,0,-0.9223,-0.9205,-0.9208,-0.9203,-0.9191,-0.9191,-0.9193,-0.9187,-0.9186,-0.918,-0.9181,-0.9178,-0.9167,-0.9163,-0.9153,-0.9155,-0.917,-0.9144,-0.9143,-0.9148,-0.918,-0.9187,-0.919,-0.9162,-0.9163,-0.9163,-0.918,0,-0.9245,-0.9249,-0.9235,-0.9242,-0.9241,-0.9223,-0.9225,-0.9217,-0.9208,-0.9206,-0.9195,-0.9193,-0.9181,-0.9178,-0.9179,-0.9168,-0.9176,-0.9167,-0.9162,-0.9162,-0.9164,-0.9193,-0.9201,-0.9217,-0.9182,-0.9182,-0.9182,0,-0.9272,-0.9267,-0.9274,-0.926,-0.9259,-0.9261,-0.9254,-0.9252,-0.9242,-0.9235,-0.923,-0.9218,-0.9217,-0.9205,-0.9203,-0.9197,-0.9194,-0.9188,-0.9188,-0.9187,-0.9173,-0.9191,-0.9222,-0.9224,-0.9186,-0.9185,-0.9185,0,-0.9301,-0.9296,-0.9298,-0.9295,-0.9279,-0.9281,-0.9274,-0.9264,-0.9261,-0.9254,-0.9251,-0.9245,-0.9241,-0.9236,-0.9221,-0.9213,-0.9221,-0.9207,-0.9214,-0.9214,-0.9216,-0.9216,-0.9247,-0.9216,-0.9216,-0.9216,-0.9216,0,-0.9327,-0.9331,-0.9311,-0.9312,-0.9316,-0.93,-0.9304,-0.9295,-0.9286,-0.9285,-0.9268,-0.9267,-0.9249,-0.9245,-0.9234,-0.9233,-0.9232,-0.9225,-0.9222,-0.9227,-0.9227,-0.9224,-0.9222,-0.9216,-0.9216,-0.9216,-0.9216,0,-0.936,-0.9346,-0.9348,-0.9333,-0.9329,-0.9332,-0.9318,-0.9319,-0.9308,-0.9307,-0.9305,-0.9289,-0.9283,-0.9268,-0.9259,-0.9251,-0.9254,-0.9249,-0.9258,-0.9255,-0.9263,-0.9262,-0.9291,-0.9294,-0.9262,-0.9263,-0.9263,0,-0.9377,-0.938,-0.9365,-0.9363,-0.9357,-0.9354,-0.9351,-0.9334,-0.9331,-0.9319,-0.932,-0.9314,-0.9308,-0.93,-0.9286,-0.9279,-0.9272,-0.9283,-0.9271,-0.9275,-0.9271,-0.9271,-0.927,-0.9286,-0.9286,-0.9287,-0.9287,0,-0.9409,-0.9401,-0.9397,-0.939,-0.9386,-0.938,-0.9373,-0.9372,-0.9353,-0.935,-0.9345,-0.934,-0.933,-0.9323,-0.9313,-0.9306,-0.9293,-0.9291,-0.9292,-0.9296,-0.9301,-0.9297,-0.9264,-0.929,-0.929,-0.929,-0.9289,-0.9289,-0.9433,-0.9434,-0.9424,-0.9419,-0.9411,-0.9405,-0.9404,-0.9393,-0.9388,-0.9379,-0.9369,-0.9364,-0.9353,-0.9338,-0.9331,-0.9326,-0.9319,-0.9321,-0.9321,-0.9322,-0.9323,-0.9302,-0.9324,-0.9324,-0.9324,-0.9324,-0.9324,0,-0.9463,-0.9455,-0.9451,-0.9441,-0.9437,-0.9425,-0.9416,-0.9413,-0.9409,-0.94,-0.9394,-0.9386,-0.9379,-0.9365,-0.9356,-0.9354,-0.9348,-0.9353,-0.9352,-0.935,-0.933,-0.933,-0.9358,-0.9358,-0.9358,-0.9358,-0.9358,-0.9358,-0.9478,-0.9479,-0.947,-0.9466,-0.9458,-0.9453,-0.9449,-0.9442,-0.9434,-0.9426,-0.942,-0.9411,-0.9399,-0.9389,-0.9381,-0.9377,-0.9374,-0.938,-0.9373,-0.9355,-0.9352,-0.9349,-0.9348,-0.9379,-0.9379,-0.9394,-0.9394,-0.9394]},{"header":{"parameterUnit":"m.s-1","parameterCategory":1,"la1":30.2991,"la2":30.254,"lo1":-89.0895,"lo2":-89.0444,"dy":0.0017,"dx":0.0017,"nx":28,"ny":28,"refTime":"2024-08-19T21:00:00:Z","depth":0,"parameterNumber":3,"parameterNumberName":"V-component_of_WINDS"},"data":[0,0,0,0,0,0,0,0,0,0,0,0,0,0,0,0,0,0,0,0,0,0,0,0,0,0,0,0,0,0,0,0,0,0,0,0,0,0,0,0,0,0,0,0,0,0,0,0,0,0,0,0,0,0,0,0,0,0,-2.7736,-2.7737,0,-2.786,-2.7861,-2.7863,-2.7874,-2.7872,-2.7871,-2.787,-2.7996,-2.8001,-2.8005,0,0,0,0,0,0,0,0,0,0,0,0,0,-2.7506,-2.751,-2.7735,-2.7737,-2.7739,-2.786,-2.7861,-2.7863,-2.7874,-2.7872,-2.7871,-2.7869,-2.7995,-2.8,-2.8006,0,0,0,0,0,0,0,0,0,0,0,0,0,-2.7616,-2.7512,-2.7735,-2.7759,-2.7762,-2.7859,-2.7861,-2.7863,-2.7874,-2.7872,-2.787,-2.7868,-2.7993,-2.8,-2.8006,-2.8089,0,0,-2.8028,-2.8031,0,0,0,0,0,0,0,0,-2.7609,-2.7624,-2.7754,-2.7757,-2.7761,-2.7849,-2.7827,-2.7939,-2.7875,-2.7832,-2.787,-2.7867,-2.7949,-2.7959,-2.7987,-2.8095,-2.81,-2.8028,-2.8032,-2.8035,-2.8037,0,0,0,0,0,0,0,-2.7602,-2.7619,-2.7785,-2.7755,-2.776,-2.7762,-2.7776,-2.7848,-2.79,-2.7835,-2.7836,-2.7851,-2.7951,-2.798,-2.799,-2.8102,-2.8028,-2.8034,-2.8038,-2.8041,-2.8282,-2.8284,0,0,0,0,0,0,-2.759,-2.7612,-2.7781,-2.7788,-2.7679,-2.7768,-2.7783,-2.7823,-2.7899,-2.7909,-2.7852,-2.7851,-2.7969,-2.7982,-2.7994,-2.8095,-2.8035,-2.8042,-2.8046,-2.828,-2.8282,-2.8285,0,0,0,0,0,0,-2.7585,-2.7605,-2.7776,-2.7701,-2.7723,-2.7774,-2.7819,-2.7826,-2.7856,-2.7912,-2.7921,-2.7873,-2.7968,-2.7985,-2.8065,-2.8099,-2.8045,-2.8051,-2.8277,-2.828,-2.8284,-2.8297,0,0,0,0,0,0,-2.7578,-2.7603,-2.7635,-2.7701,-2.7727,-2.7845,-2.7821,-2.783,-2.7868,-2.7867,-2.7934,-2.7943,-2.7968,-2.8055,-2.8072,-2.8108,-2.8057,-2.8274,-2.8279,-2.8283,-2.8293,-2.83,-2.8306,0,0,0,0,0,-2.757,-2.7634,-2.7637,-2.7657,-2.7768,-2.7847,-2.7861,-2.7888,-2.7871,-2.7903,-2.7939,-2.7941,-2.8093,-2.8063,-2.8082,-2.8121,-2.8272,-2.8277,-2.8282,-2.8291,-2.8299,-2.8306,0,0,0,0,0,0,-2.7571,-2.7643,-2.7647,-2.7735,-2.7784,-2.7848,-2.789,-2.7896,-2.7952,-2.7949,-2.798,-2.7995,-2.8074,-2.8106,-2.8071,-2.8204,-2.8181,-2.819,-2.818,-2.8189,-2.8195,-2.8185,-2.8062,0,0,0,0,0,-2.7581,-2.7639,-2.7699,-2.7771,-2.7795,-2.7838,-2.7874,-2.789,-2.7943,-2.7964,-2.8006,-2.8057,-2.8116,-2.8154,-2.8211,-2.8298,-2.8312,-2.8334,-2.834,-2.8345,-2.8353,-2.84,-2.841,-2.8302,-2.8301,-2.8301,0,0,-2.7603,-2.765,-2.7685,-2.7772,-2.7813,-2.7871,-2.7856,-2.7919,-2.7963,-2.7974,-2.8052,-2.8084,-2.8143,-2.8226,-2.8265,-2.8255,-2.8386,-2.8352,-2.8355,-2.836,-2.8406,-2.8416,-2.8425,-2.8305,-2.8304,-2.8304,0,0,-2.7673,-2.7715,-2.7778,-2.7819,-2.788,-2.7908,-2.7923,-2.7987,-2.8008,-2.8087,-2.8096,-2.8148,-2.825,-2.8291,-2.8325,-2.8409,-2.8413,-2.8427,-2.8459,-2.8505,-2.8513,-2.8521,-2.855,-2.856,-2.8434,-2.8434,-2.8434,0,-2.7693,-2.7782,-2.781,-2.7873,-2.791,-2.7923,-2.7986,-2.8024,-2.8101,-2.8127,-2.8114,-2.8241,-2.8282,-2.8374,-2.8394,-2.8422,-2.844,-2.8419,-2.851,-2.8518,-2.8525,-2.8553,-2.8564,-2.8435,-2.8435,-2.8435,-2.8435,0,-2.7803,-2.7864,-2.7908,-2.7982,-2.8024,-2.8087,-2.8124,-2.8164,-2.8176,-2.8205,-2.8285,-2.8333,-2.84,-2.8424,-2.8437,-2.8518,-2.851,-2.8503,-2.848,-2.8536,-2.8563,-2.8574,-2.8437,-2.8437,-2.8436,-2.8436,0,0,-2.7877,-2.7965,-2.798,-2.8013,-2.8081,-2.8129,-2.8192,-2.8258,-2.829,-2.8343,-2.8396,-2.8481,-2.8475,-2.8514,-2.8531,-2.8571,-2.8633,-2.856,-2.8562,-2.8571,-2.8725,-2.8729,-2.8741,-2.8636,-2.8639,-2.864,-2.8719,0,-2.7954,-2.8067,-2.8093,-2.819,-2.8246,-2.8258,-2.8313,-2.836,-2.8389,-2.844,-2.8472,-2.8531,-2.8519,-2.8542,-2.8583,-2.8617,-2.8665,-2.8612,-2.8685,-2.8688,-2.867,-2.8755,-2.876,-2.8832,-2.873,-2.8732,-2.8733,0,-2.8059,-2.8113,-2.8215,-2.8275,-2.8299,-2.8348,-2.841,-2.8459,-2.8513,-2.8531,-2.8573,-2.8587,-2.8652,-2.8626,-2.8716,-2.868,-2.8711,-2.8733,-2.8736,-2.8743,-2.8713,-2.8764,-2.8856,-2.8866,-2.875,-2.8749,-2.8748,0,-2.8102,-2.8201,-2.8274,-2.8302,-2.8373,-2.8407,-2.8438,-2.849,-2.8527,-2.8581,-2.8605,-2.8666,-2.8699,-2.8745,-2.8774,-2.8753,-2.8861,-2.8838,-2.8877,-2.8876,-2.8899,-2.8897,-2.8997,-2.8921,-2.892,-2.892,-2.892,0,-2.8185,-2.8247,-2.8294,-2.8339,-2.8408,-2.8437,-2.8505,-2.8536,-2.8582,-2.8633,-2.8647,-2.8694,-2.873,-2.8782,-2.8805,-2.8876,-2.8891,-2.8906,-2.8912,-2.8905,-2.8903,-2.8925,-2.8921,-2.8923,-2.8922,-2.8922,-2.8921,0,-2.8245,-2.8279,-2.836,-2.842,-2.8437,-2.8485,-2.8537,-2.858,-2.8609,-2.8673,-2.869,-2.8735,-2.8797,-2.883,-2.8908,-2.8924,-2.9002,-2.9005,-2.8984,-2.8986,-2.9023,-2.9019,-2.914,-2.9157,-2.907,-2.9071,-2.9072,0,-2.8295,-2.8343,-2.8408,-2.8443,-2.8475,-2.8531,-2.8569,-2.8599,-2.8638,-2.8702,-2.8738,-2.88,-2.8852,-2.8951,-2.899,-2.9049,-2.9053,-2.9092,-2.9062,-2.9053,-2.9053,-2.9049,-2.9054,-2.9096,-2.9097,-2.9098,-2.9098,0,-2.838,-2.8395,-2.8449,-2.8508,-2.8553,-2.8602,-2.865,-2.8677,-2.8715,-2.8758,-2.8822,-2.8862,-2.8941,-2.9003,-2.9065,-2.9097,-2.9104,-2.9107,-2.9119,-2.9113,-2.9098,-2.9106,-2.8997,-2.9104,-2.9104,-2.9103,-2.9103,-2.9103,-2.8437,-2.8479,-2.8531,-2.859,-2.8629,-2.8674,-2.8717,-2.8751,-2.8804,-2.8871,-2.8886,-2.8952,-2.9004,-2.9088,-2.9121,-2.9173,-2.9166,-2.9184,-2.9188,-2.9192,-2.9193,-2.909,-2.9185,-2.9185,-2.9185,-2.9185,-2.9185,0,-2.8522,-2.8556,-2.861,-2.8676,-2.8723,-2.8725,-2.8778,-2.8817,-2.8875,-2.8922,-2.8973,-2.9045,-2.9105,-2.9148,-2.9209,-2.9242,-2.9247,-2.9257,-2.9255,-2.9262,-2.9197,-2.918,-2.9252,-2.9252,-2.9252,-2.9252,-2.9252,-2.9252,-2.8572,-2.8643,-2.8663,-2.8753,-2.8787,-2.8852,-2.8882,-2.8923,-2.896,-2.904,-2.909,-2.9118,-2.9163,-2.9227,-2.9282,-2.9293,-2.9315,-2.9324,-2.9336,-2.9274,-2.9267,-2.926,-2.9244,-2.9329,-2.9329,-2.9397,-2.9398,-2.9398]}]]